Powrót do katalogu

STARLINK-35302

AktywnyŁącznośćVLEO
NORAD 65845·PAYLOAD·🇺🇸 United States

Wystrzelony Sep 29, 2025 z Vandenberg Space Force Base

Loading…

Następne Przeloty (najbliższe 24 godziny)

TLE

ŚwieżeSource: CelesTrak SupGP

Epoka: Sep 14, 2026, 21:21 UTC

1 65845C 25221Y   26257.89006944  .00038625  00000+0  11414-2 0  2575
2 65845  53.1585 285.6403 0001199  93.1604 336.8560 15.34364830    17

Śledź STARLINK-35302 w czasie rzeczywistym z AllMySat

Download on the App Store